Regional Weather Roundup
Issued by NWS Newport/Morehead, NC

Current Version | Previous Version | Text Only | Print | Product List | Glossary On
Versions: 1 2 3 4 5 6 7 8 9 10 11 12 13 14 15 16 17 18 19 20 21 22 23 24 25 26 27 28 29 30 31 32 33 34 35 36 37 38 39 40 41 42 43 44 45 46 47 48 49 50
000 ASUS42 KMHX 270725 RWRMHX WEATHER ROUNDUP FOR EASTERN NORTH CAROLINA NATIONAL WEATHER SERVICE NEWPORT/MOREHEAD CITY NC 300 AM EDT FRI MAY 27 2016 NOTE: "FAIR" INDICATES FEW OR NO CLOUDS BELOW 12,000 FEET WITH NO SIGNIFICANT WEATHER AND/OR OBSTRUCTIONS TO VISIBILITY NCZ015>017-031-032-045>047-102-103-270800- NORTH COAST CITY SKY/WX TMP DP RH WIND PRES REMARKS EDENTON MOCLDY N/A N/A N/A SW5 30.16R ELIZABETH CITY PTCLDY 69 63 81 S7 30.14S KITTY HAWK SUNNY 69 64 83 SW3 30.15R MANTEO NOT AVBL $$ NCZ045>047-081-094-103-104-270800- CENTRAL COAST CITY SKY/WX TMP DP RH WIND PRES REMARKS FRISCO CLEAR 72 63 73 S6 30.14S $$ NCZ095-097-098-100-101-270800- SOUTHERN COAST CITY SKY/WX TMP DP RH WIND PRES REMARKS BEAUFORT CLEAR 70 63 78 S3 30.14S CEDAR ISLAND NOT AVBL JACKSONVILLE CLEAR 67 63 87 CALM 30.14R PINEY ISLAND MOSUNNY N/A N/A N/A W3 30.15R WILMINGTON CLEAR 68 64 87 CALM 30.13F $$ NCZ011>013-027>030-043-044-078>080-089-090>093-098-270800- COASTAL PLAIN CITY SKY/WX TMP DP RH WIND PRES REMARKS AHOSKIE CLEAR 68 62 81 S6 30.14S CLINTON PTCLDY 67 66 97 CALM 30.16R ELIZABETHTOWN PTCLDY 66 65 96 CALM 30.15S GOLDSBORO PTCLDY 69 69 100 S5 30.14R GREENVILLE CLEAR 68 64 88 CALM 30.16S HAVELOCK CLEAR 64 61 90 CALM 30.16S KENANSVILLE MOCLDY 63 61 94 CALM 30.16S KINSTON PTCLDY 67 64 89 W3 30.16S NEW BERN CLEAR 62 60 93 CALM 30.16R RICHLANDS CLEAR 62 61 96 CALM 30.15R ROCKY MOUNT CLEAR 69 64 84 S7 30.14S WASHINGTON MOCLDY 67 64 90 W3 30.16R WHITEVILLE PTCLDY 64 63 94 CALM 30.14S $$ AMZ130-135-150-152-154-156-158-170-250-252-270-ANZ085-086-088-633-658-670-270800- MARINE OBSERVATIONS STATION/POSITION TIME TEMP WIND PRES WAVE SWELL AIR SEA DIR/SP/G HT/PER HT/PER (UTC) (F) (DEG/KT/KT) (MB) (FT/S) (FT/S) CHESAPEAKE LIGHT 0700 70 210/ 20/ 20 1020.2 64 E VA BEACH 0650 62 59 270/ 6/ 6 1020.6 2/ 8 2/ 8 DUCK 0700 71 60 220/ 7/ 9 1020.3 2 E DUCK 0611 62 N/A 2/ 8 OREGON INLET 0700 73 77 200/ 9/ 11 1020.7 13E OREGON INLT 0700 65 N/A 2/ 7 2/ 7 HATTERAS CG 0700 72 74 180/ 3/ 8 1020.3 DIAMOND BUOY 0650 76 72 180/ 10/ 14 1020.7 2/ 8 2/ 8 CAPE LOOKOUT 0700 73 180/ 6/ 8 1020.4 BEAUFORT LAB 0700 73 72 200/ 5/ 6 1020.0 30 SE NEW RVR IN 0625 74 N/A 2/ 8 27 SE WRIGHTSVLE 0608 76 74 180/ 10/ 14 1019.6 5 SE WRIGHTSVLE 0608 75 73 180/ 8/ 12 1021.1 225 S CAPE HAT 0650 76 77 50/ 12/ 14 1019.1 3/ 8 2/ 8 41 SE CHARLESTON 0650 77 77 140/ 8/ 10 1019.4 2/ 8 2/ 8 $$

USA.gov is the U.S. government's official web portal to all federal, state and local government web resources and services.